1511758800.74,14566,6.94,72926.8,-16.07,-17.03,-16.93,0,*68
1511758802.01,14567,6.94,72926.0,-16.09,-17.03,-16.97,0,*63
1511758803.22,14568,6.94,72924.0,-16.07,-16.97,-16.93,0,*6A
1511758804.43,14569,6.94,72926.5,-16.07,-16.97,-16.93,0,*6B
1511758805.7,14570,6.94,72928.5,-16.09,-17.03,-16.97,0,*65
1511758806.97,14571,6.94,72928.0,-16.09,-17.03,-16.97,0,*64
1511758808.21,14572,6.94,72930.0,-16.07,-17.03,-16.97,0,*69
1511758809.47,14573,6.94,72926.5,-16.09,-17.03,-16.97,0,*66
1511758810.72,14574,6.94,72932.0,-16.07,-17.03,-16.97,0,*6F
1511758811.96,14575,6.94,72928.3,-16.07,-17.11,-16.97,0,*6D
1511758813.2,14576,6.94,72928.8,-16.07,-17.03,-16.97,0,*6D
1511758814.44,14577,6.94,72924.8,-16.07,-17.03,-16.97,0,*6C
1511758815.71,14578,6.94,72930.8,-16.09,-17.03,-16.97,0,*6D
1511758817.0,14579,6.94,72928.0,-16.09,-17.11,-17.03,0,*63
1511758818.29,14580,6.94,72928.3,-16.09,-17.11,-17.03,0,*65
1511758819.58,14581,7.0,72932.5,-16.09,-17.03,-17.03,0,*67
1511758820.87,14582,6.94,72926.3,-16.09,-17.11,-17.03,0,*67
1511758822.16,14583,6.94,72930.3,-16.09,-17.03,-17.11,0,*66
1511758823.45,14584,6.94,72928.5,-16.09,-17.11,-17.03,0,*61
1511758824.73,14585,6.94,72928.0,-16.07,-17.03,-17.11,0,*6E
1511758825.99,14586,6.94,72924.0,-16.07,-17.11,-17.03,0,*6D
1511758827.28,14587,6.94,72924.8,-16.09,-17.11,-17.11,0,*61
1511758828.57,14588,6.94,72924.8,-16.09,-17.11,-17.03,0,*6D
1511758829.84,14589,6.94,72926.5,-16.07,-17.03,-17.03,0,*61
1511758831.11,14590,6.94,72922.5,-16.07,-17.03,-17.03,0,*69
1511758832.41,14591,6.94,72924.3,-16.09,-17.03,-17.03,0,*66
1511758833.67,14592,6.94,72924.0,-16.07,-17.11,-17.03,0,*68
1511758834.96,14593,6.94,72926.3,-16.09,-17.11,-17.03,0,*67
1511758836.26,14594,6.94,72926.8,-16.09,-17.03,-17.03,0,*63
1511758837.55,14595,6.94,72924.5,-16.09,-17.03,-17.03,0,*62
1511758838.84,14596,6.94,72926.3,-16.09,-17.03,-17.11,0,*62
1511758840.14,14597,6.94,72924.0,-16.09,-17.03,-17.03,0,*60
1511758841.43,14598,6.94,72922.3,-16.09,-17.03,-17.03,0,*6F
1511758842.73,14599,6.94,72920.5,-16.09,-17.03,-17.11,0,*6D
1511758844.02,14600,6.94,72924.3,-16.09,-17.03,-17.03,0,*6D
1511758845.31,14601,6.94,72926.3,-16.09,-17.03,-17.03,0,*6C
1511758846.6,14602,6.94,72926.8,-16.09,-17.11,-17.03,0,*6C
1511758847.87,14603,6.94,72926.3,-16.07,-17.03,-17.03,0,*60
1511758849.17,14604,6.94,72922.8,-16.09,-17.03,-17.03,0,*69
1511758850.44,14605,6.94,72924.5,-16.11,-17.17,-17.07,0,*60
1511758851.71,14606,6.94,72924.3,-16.11,-17.07,-17.17,0,*63
1511758853.0,14607,6.94,72930.8,-16.09,-17.11,-17.11,0,*6A
1511758854.29,14608,6.94,72928.0,-16.09,-17.11,-17.11,0,*65
1511758855.58,14609,6.94,72924.8,-16.09,-17.03,-17.11,0,*67
1511758856.88,14610,6.94,72924.3,-16.09,-17.03,-17.11,0,*6F
1511758858.17,14611,6.94,72922.0,-16.09,-17.11,-17.03,0,*6E
1511758859.43,14612,6.94,72922.8,-16.07,-17.11,-17.17,0,*66
1511758860.72,14613,6.94,72926.0,-16.09,-17.11,-17.11,0,*6F
1511758861.99,14614,6.94,72930.5,-16.07,-17.25,-17.11,0,*61
1511758863.26,14615,6.94,72924.5,-16.11,-17.17,-17.17,0,*60
1511758864.52,14616,6.94,72926.8,-16.11,-17.17,-17.17,0,*63
1511758865.79,14617,6.94,72926.3,-16.11,-17.21,-17.17,0,*67
1511758867.08,14618,6.94,72928.3,-16.13,-17.07,-17.17,0,*6E
1511758868.34,14619,6.94,72924.5,-16.11,-17.21,-17.17,0,*69
1511758869.63,14620,6.94,72926.0,-16.09,-17.11,-17.11,0,*6F
1511758870.87,14621,6.94,72926.3,-16.11,-17.31,-17.21,0,*66
1511758872.16,14622,6.94,72924.5,-16.09,-17.11,-17.11,0,*6D
1511758873.42,14623,6.94,72926.3,-16.11,-17.21,-17.17,0,*60
1511758874.69,14624,6.94,72924.5,-16.11,-17.21,-17.17,0,*67
1511758875.99,14625,6.94,72922.5,-16.13,-17.17,-17.21,0,*64
1511758877.25,14626,6.94,72924.5,-16.11,-17.21,-17.17,0,*65
1511758878.48,14627,6.94,72920.5,-16.11,-17.31,-17.17,0,*65
1511758879.76,14628,6.94,72922.5,-16.11,-17.17,-17.07,0,*6F
1511758881.06,14629,6.94,72924.0,-16.13,-17.17,-17.21,0,*68
1511758882.32,14630,6.94,72926.8,-16.11,-17.21,-17.17,0,*62
1511758883.59,14631,6.94,72924.8,-16.11,-17.21,-17.17,0,*63
1511758884.85,14632,6.94,72924.8,-16.11,-17.21,-17.17,0,*60
1511758886.14,14633,6.94,72924.8,-16.13,-17.21,-17.17,0,*63
1511758887.41,14634,6.94,72924.0,-16.11,-17.21,-17.17,0,*66
1511758888.67,14635,6.94,72924.8,-16.11,-17.21,-17.17,0,*67
1511758889.95,14636,6.94,72920.3,-16.11,-17.07,-17.07,0,*61
1511758891.22,14637,6.94,72928.8,-16.11,-17.17,-17.17,0,*60
1511758892.51,14638,6.94,72924.0,-16.13,-17.21,-17.17,0,*68
1511758893.78,14639,6.94,72926.8,-16.11,-17.21,-17.07,0,*6A
1511758895.05,14640,6.94,72922.8,-16.11,-17.21,-17.07,0,*64
1511758896.32,14641,6.94,72924.0,-16.11,-17.21,-17.17,0,*64
1511758897.59,14642,6.94,72926.5,-16.11,-17.21,-17.07,0,*66
1511758898.86,14643,6.94,72920.3,-16.11,-17.17,-17.17,0,*63
1511758900.16,14644,6.94,72926.8,-16.13,-17.17,-17.07,0,*67
1511758901.43,14645,6.94,72924.5,-16.11,-17.21,-17.17,0,*60
1511758902.7,14646,6.94,72920.3,-16.13,-17.31,-17.07,0,*61
1511758903.97,14647,6.94,72916.5,-16.11,-17.21,-17.17,0,*62
1511758905.23,14648,6.94,72920.3,-16.11,-17.21,-17.17,0,*6D
1511758906.49,14649,6.94,72920.3,-16.13,-17.31,-17.21,0,*6A
1511758907.79,14650,6.94,72922.3,-16.13,-17.21,-17.21,0,*63
1511758909.05,14651,6.94,72920.3,-16.11,-17.21,-17.17,0,*65
1511758910.31,14652,6.94,72922.5,-16.13,-17.31,-17.17,0,*65
1511758911.54,14653,6.94,72922.3,-16.13,-17.31,-17.31,0,*60
1511758912.81,14654,6.94,72920.3,-16.11,-17.21,-17.21,0,*65
1511758914.1,14655,6.94,72918.3,-16.13,-17.21,-17.21,0,*66
1511758915.34,14656,6.94,72920.8,-16.11,-17.31,-17.21,0,*66
1511758916.63,14657,6.94,72920.3,-16.13,-17.21,-17.21,0,*64
1511758917.93,14658,6.94,72920.0,-16.13,-17.21,-17.21,0,*6B
1511758919.16,14659,6.94,72914.0,-16.13,-17.31,-17.31,0,*6A
1511758920.45,14660,6.94,72918.8,-16.13,-17.21,-17.17,0,*65
1511758921.71,14661,6.94,72918.8,-16.13,-17.21,-17.31,0,*60
1511758922.98,14662,6.94,72918.8,-16.13,-17.31,-17.21,0,*63
1511758924.27,14663,6.94,72920.0,-16.13,-17.21,-17.21,0,*63
1511758925.54,14664,6.94,72918.0,-16.15,-17.25,-17.25,0,*62
1511758926.76,14665,6.94,72918.8,-16.15,-17.35,-17.35,0,*63
1511758928.01,14666,6.94,72918.8,-16.15,-17.35,-17.21,0,*65
1511758929.28,14667,6.94,72918.0,-16.15,-17.25,-17.21,0,*65
1511758930.57,14668,6.94,72914.8,-16.13,-17.21,-17.21,0,*68
1511758931.84,14669,6.94,72916.0,-16.15,-17.25,-17.21,0,*6B
1511758933.08,14670,6.94,72916.0,-16.13,-17.31,-17.31,0,*61
1511758934.34,14671,6.94,72916.3,-16.13,-17.31,-17.21,0,*61
1511758935.58,14672,6.94,72914.0,-16.13,-17.35,-17.31,0,*67
1511758936.85,14673,6.94,72916.3,-16.15,-17.21,-17.25,0,*60
1511758938.09,14674,6.94,72916.0,-16.15,-17.35,-17.25,0,*62
1511758939.36,14675,6.94,72916.0,-16.15,-17.25,-17.25,0,*62
1511758940.63,14676,6.94,72920.5,-16.15,-17.25,-17.21,0,*65
1511758941.87,14677,6.94,72916.3,-16.15,-17.35,-17.21,0,*65
1511758943.15,14678,6.94,72914.8,-16.17,-17.35,-17.21,0,*68
1511758944.42,14679,6.94,72912.5,-16.15,-17.25,-17.21,0,*6A
1511758945.69,14680,6.94,72912.3,-16.15,-17.25,-17.21,0,*6C
1511758946.96,14681,6.94,72916.5,-16.15,-17.21,-17.21,0,*69
1511758948.23,14682,6.94,72912.0,-16.15,-17.25,-17.21,0,*6E
1511758949.5,14683,6.94,72914.5,-16.15,-17.25,-17.21,0,*6F
1511758950.79,14684,6.94,72912.0,-16.17,-17.25,-17.21,0,*6A
1511758952.06,14685,6.94,72914.0,-16.15,-17.11,-17.21,0,*6E
1511758953.33,14686,6.94,72914.3,-16.15,-17.21,-17.21,0,*6E
1511758954.62,14687,6.94,72914.5,-16.17,-17.25,-17.21,0,*69
1511758955.92,14688,6.94,72916.0,-16.17,-17.25,-17.11,0,*65
1511758957.19,14689,6.94,72916.8,-16.15,-17.11,-17.21,0,*62
1511758958.46,14690,6.94,72914.3,-16.15,-17.21,-17.21,0,*69
1511758959.73,14691,6.94,72912.3,-16.15,-17.25,-17.21,0,*6C
1511758961.0,14692,6.94,72916.8,-16.15,-17.21,-17.21,0,*6B
1511758962.27,14693,6.94,72912.8,-16.15,-17.21,-17.21,0,*6A
1511758963.56,14694,6.94,72912.5,-16.17,-17.11,-17.11,0,*6F
1511758964.85,14695,6.94,72914.0,-16.17,-17.11,-17.11,0,*6E
1511758966.15,14696,6.94,72914.5,-16.17,-17.21,-17.11,0,*6E
1511758967.42,14697,6.94,72918.8,-16.15,-17.11,-17.11,0,*6E
1511758968.71,14698,6.94,72914.0,-16.17,-17.11,-17.11,0,*63
1511758969.98,14699,6.94,72914.5,-16.15,-17.11,-17.11,0,*60
1511758971.24,14700,6.94,72916.0,-16.15,-17.11,-17.11,0,*61
1511758972.51,14701,6.94,72916.5,-16.15,-17.11,-17.11,0,*60
1511758973.8,14702,6.94,72912.8,-16.17,-17.11,-17.11,0,*61
1511758975.07,14703,6.94,72916.8,-16.15,-17.11,-17.11,0,*62
1511758976.34,14704,6.94,72914.8,-16.15,-17.11,-17.07,0,*62
1511758977.62,14705,6.94,72916.8,-16.15,-17.11,-17.07,0,*63
1511758978.89,14706,6.94,72916.3,-16.15,-17.11,-17.07,0,*60
1511758980.19,14707,6.94,72916.5,-16.17,-17.11,-17.07,0,*63
1511758981.49,14708,6.94,72914.5,-16.17,-17.07,-17.11,0,*6C
1511758982.78,14709,6.94,72918.3,-16.17,-17.11,-17.11,0,*6A
1511758984.05,14710,6.94,72910.3,-16.15,-17.11,-17.07,0,*67
1511758985.36,14711,6.94,72912.0,-16.17,-17.11,-17.07,0,*64
1511758986.66,14712,6.94,72916.5,-16.17,-17.07,-17.07,0,*60
1511758987.93,14713,6.94,72910.8,-16.15,-17.07,-17.03,0,*67
1511758989.21,14714,6.94,72916.0,-16.15,-17.07,-17.07,0,*64
1511758990.48,14715,6.94,72918.0,-16.15,-17.11,-17.07,0,*62
1511758991.75,14716,6.94,72916.3,-16.15,-17.11,-17.07,0,*61
1511758993.03,14717,6.94,72918.8,-16.15,-17.11,-17.07,0,*60
1511758994.33,14718,6.94,72912.5,-16.17,-17.21,-17.07,0,*6E
1511758995.6,14719,6.94,72908.5,-16.15,-17.11,-17.07,0,*6E
1511758996.88,14720,6.94,72908.8,-16.15,-17.11,-17.07,0,*64
1511758998.15,14721,6.94,72904.8,-16.15,-17.11,-17.07,0,*65
1511758999.43,14722,6.94,72904.5,-16.15,-17.11,-17.07,0,*66
1511759000.73,14723,6.94,72906.5,-16.17,-17.07,-17.07,0,*62
1511759002.0,14724,6.94,72904.5,-16.15,-17.07,-17.03,0,*63
1511759003.28,14725,6.94,72912.3,-16.15,-17.03,-17.07,0,*62
1511759004.55,14726,6.94,72912.0,-16.15,-17.07,-17.07,0,*65
1511759005.85,14727,6.94,72910.8,-16.17,-17.03,-17.03,0,*66
1511759007.16,14728,6.94,72908.3,-16.17,-17.03,-17.07,0,*6D
1511759008.43,14729,6.94,72912.8,-16.15,-17.03,-17.03,0,*6A
1511759009.7,14730,6.94,72916.3,-16.15,-17.03,-17.07,0,*66
1511759011.0,14731,6.94,72914.0,-16.17,-17.07,-17.03,0,*65
1511759012.27,14732,6.94,72914.8,-16.15,-17.07,-17.03,0,*64
1511759013.57,14733,6.94,72914.8,-16.17,-17.07,-17.03,0,*67
1511759014.84,14734,6.94,72918.8,-16.15,-17.07,-17.03,0,*62
1511759016.14,14735,6.94,72916.0,-16.17,-17.03,-17.03,0,*65
1511759017.41,14736,6.94,72920.5,-16.15,-17.07,-17.03,0,*60
1511759018.71,14737,6.94,72924.3,-16.17,-17.03,-17.03,0,*67
1511759019.98,14738,6.94,72916.8,-16.15,-17.03,-17.03,0,*6A
1511759021.28,14739,6.94,72920.0,-16.17,-17.07,-17.07,0,*69
1511759022.58,14740,6.94,72914.8,-16.17,-17.07,-17.03,0,*63
1511759023.88,14741,6.94,72916.3,-16.17,-17.03,-17.07,0,*62
1511759025.16,14742,6.94,72916.3,-16.15,-17.03,-17.07,0,*63
1511759026.46,14743,6.94,72916.3,-16.17,-17.03,-17.03,0,*64
1511759027.73,14744,6.94,72922.0,-16.15,-17.03,-17.03,0,*61
1511759028.99,14745,6.94,72918.5,-16.13,-17.03,-16.97,0,*6A
1511759030.27,14746,6.94,72922.5,-16.15,-17.03,-17.07,0,*67
1511759031.54,14747,6.94,72916.0,-16.15,-17.03,-17.03,0,*62
1511759032.82,14748,6.94,72914.8,-16.15,-17.07,-17.07,0,*6D
1511759034.09,14749,6.94,72912.5,-16.15,-17.03,-17.03,0,*6C
1511759035.37,14750,6.94,72918.8,-16.15,-17.03,-17.07,0,*60
1511759036.64,14751,6.94,72918.0,-16.15,-17.07,-17.07,0,*65
1511759037.92,14752,6.94,72918.0,-16.15,-17.07,-17.07,0,*66
1511759039.19,14753,6.94,72916.3,-16.15,-17.07,-17.03,0,*63
1511759040.49,14754,6.94,72920.5,-16.17,-17.03,-17.03,0,*62
1511759041.77,14755,6.94,72922.5,-16.15,-17.07,-17.07,0,*61
1511759043.04,14756,6.94,72916.5,-16.15,-17.03,-17.03,0,*62
1511759044.32,14757,6.94,72922.0,-16.15,-17.07,-17.07,0,*63
1511759045.61,14758,6.94,72920.0,-16.13,-17.03,-17.03,0,*6A
1511759046.91,14759,6.94,72922.8,-16.17,-17.03,-17.07,0,*6B
1511759048.19,14760,6.94,72926.0,-16.15,-17.07,-17.03,0,*63
1511759049.46,14761,6.94,72922.0,-16.15,-17.03,-17.07,0,*62
1511759050.77,14762,6.94,72920.3,-16.17,-17.03,-17.07,0,*63
1511759052.04,14763,6.94,72920.8,-16.15,-17.03,-17.07,0,*60
1511759053.35,14764,6.94,72924.3,-16.17,-17.07,-17.07,0,*61
1511759054.61,14765,6.94,72920.3,-16.13,-16.97,-17.03,0,*68
1511759055.89,14766,6.94,72924.8,-16.15,-17.07,-17.03,0,*65
1511759057.16,14767,6.94,72924.3,-16.15,-17.07,-17.03,0,*64
1511759058.43,14768,6.94,72926.0,-16.15,-17.03,-17.07,0,*6B
1511759059.71,14769,6.94,72920.8,-16.15,-17.07,-17.07,0,*6E
1511759060.99,14770,6.94,72926.5,-16.15,-17.07,-17.07,0,*66
1511759062.27,14771,6.94,72924.8,-16.15,-17.07,-17.07,0,*67
1511759063.54,14772,6.94,72924.0,-16.15,-17.03,-17.07,0,*60
1511759064.82,14773,6.94,72920.5,-16.15,-17.07,-17.07,0,*65
1511759066.09,14774,6.94,72924.3,-16.15,-17.03,-17.03,0,*62
1511759067.4,14775,6.94,72926.3,-16.17,-17.07,-17.07,0,*61
1511759068.69,14776,6.94,72924.0,-16.17,-17.07,-17.03,0,*66
1511759069.99,14777,6.94,72922.3,-16.17,-17.07,-17.03,0,*67
1511759071.26,14778,6.94,72924.5,-16.13,-16.97,-17.03,0,*64
1511759072.53,14779,6.94,72922.3,-16.15,-17.07,-17.03,0,*6B
1511759073.8,14780,6.94,72920.0,-16.15,-17.07,-17.03,0,*6D
1511759075.08,14781,6.94,72926.5,-16.15,-17.07,-17.07,0,*68
1511759076.36,14782,6.94,72924.5,-16.15,-17.07,-17.07,0,*6B
1511759077.63,14783,6.94,72926.3,-16.15,-17.03,-17.07,0,*6E
1511759078.9,14784,6.94,72924.8,-16.15,-17.07,-17.03,0,*69
1511759080.18,14785,6.94,72922.8,-16.15,-17.07,-17.03,0,*68
1511759081.47,14786,6.94,72924.3,-16.17,-17.07,-17.03,0,*69
1511759082.75,14787,6.94,72922.3,-16.15,-17.07,-17.07,0,*6E
1511759084.03,14788,6.94,72920.5,-16.15,-17.07,-17.07,0,*61
1511759085.3,14789,6.94,72926.3,-16.15,-17.03,-17.03,0,*60
1511759086.6,14790,6.94,72920.3,-16.17,-17.07,-17.07,0,*6A
1511759087.88,14791,6.94,72926.0,-16.15,-17.07,-17.07,0,*69
1511759089.16,14792,6.94,72920.5,-16.15,-17.07,-17.07,0,*6A
1511759090.43,14793,6.94,72924.5,-16.15,-17.07,-17.03,0,*6F
1511759091.7,14794,6.94,72926.3,-16.15,-17.07,-17.03,0,*68
1511759092.98,14795,6.94,72920.3,-16.15,-17.07,-17.07,0,*6D
1511759094.26,14796,6.94,72920.5,-16.15,-17.07,-17.07,0,*6E
1511759095.53,14797,6.94,72924.0,-16.15,-17.07,-17.07,0,*6F
1511759096.81,14798,6.94,72926.8,-16.15,-17.07,-17.07,0,*60
1511759098.09,14799,6.94,72924.0,-16.15,-17.07,-17.07,0,*61
1511759099.36,14800,6.94,72924.3,-16.15,-17.11,-17.03,0,*6D
1511759100.63,14801,6.94,72924.3,-16.15,-17.07,-17.07,0,*6F
1511759101.91,14802,6.94,72922.0,-16.15,-17.03,-17.07,0,*68
1511759103.19,14803,6.94,72926.8,-16.15,-17.03,-17.07,0,*69
1511759104.46,14804,6.94,72926.0,-16.15,-17.07,-17.07,0,*6A
1511759105.73,14805,6.94,72924.8,-16.15,-17.07,-17.11,0,*6C
1511759107.01,14806,6.94,72924.8,-16.15,-17.07,-17.07,0,*68
1511759108.29,14807,6.94,72926.8,-16.15,-17.07,-17.07,0,*69
1511759109.56,14808,6.94,72924.8,-16.15,-17.07,-17.11,0,*61
1511759110.83,14809,6.94,72924.5,-16.15,-17.11,-17.11,0,*67
1511759112.09,14810,6.94,72926.3,-16.15,-17.11,-17.11,0,*6F
1511759113.36,14811,6.94,72924.5,-16.15,-17.11,-17.11,0,*6E
1511759114.63,14812,6.94,72920.3,-16.15,-17.11,-17.11,0,*6D
1511759115.89,14813,6.94,72920.8,-16.15,-17.11,-17.11,0,*6C
1511759117.16,14814,6.94,72922.3,-16.15,-17.21,-17.11,0,*68
1511759118.43,14815,6.94,72928.3,-16.15,-17.11,-17.11,0,*6A
1511759119.7,14816,6.94,72926.5,-16.15,-17.21,-17.11,0,*6A
1511759120.97,14817,6.94,72924.5,-16.15,-17.11,-17.11,0,*68
1511759122.24,14818,6.94,72926.8,-16.15,-17.11,-17.11,0,*67
1511759123.54,14819,6.94,72922.8,-16.13,-17.07,-17.07,0,*60
1511759124.8,14820,6.94,72920.8,-16.15,-17.11,-17.11,0,*6C
1511759126.07,14821,6.94,72922.5,-16.15,-17.11,-17.11,0,*6D
1511759127.34,14822,6.94,72924.0,-16.15,-17.11,-17.11,0,*6E
1511759128.6,14823,6.94,72922.5,-16.15,-17.11,-17.11,0,*6F
1511759129.87,14824,6.94,72926.3,-16.15,-17.11,-17.21,0,*6B
1511759131.14,14825,6.94,72922.3,-16.15,-17.11,-17.11,0,*69
1511759132.4,14826,6.94,72922.5,-16.15,-17.11,-17.11,0,*6A
1511759133.7,14827,6.94,72920.8,-16.17,-17.11,-17.11,0,*69
1511759134.96,14828,6.94,72922.8,-16.15,-17.11,-17.11,0,*64
1511759136.26,14829,6.94,72916.5,-16.17,-17.11,-17.11,0,*67
1511759137.52,14830,6.94,72922.8,-16.15,-17.11,-17.11,0,*6D
1511759138.79,14831,6.94,72922.8,-16.15,-17.11,-17.11,0,*6C
1511759140.08,14832,6.94,72924.5,-16.17,-17.11,-17.11,0,*6D
1511759141.38,14833,6.94,72924.0,-16.17,-17.11,-17.11,0,*6C
1511759142.64,14834,6.94,72924.5,-16.15,-17.11,-17.11,0,*69
1511759143.91,14835,6.94,72922.5,-16.15,-17.11,-17.11,0,*68
1511759145.18,14836,6.94,72920.0,-16.15,-17.11,-17.11,0,*6B
1511759146.44,14837,6.94,72922.5,-16.15,-17.11,-17.11,0,*6A
1511759147.71,14838,6.94,72924.0,-16.15,-17.11,-17.11,0,*65
1511759148.98,14839,6.94,72918.8,-16.15,-17.11,-17.11,0,*64
1511759150.27,14840,6.94,72920.5,-16.17,-17.11,-17.11,0,*68
1511759151.57,14841,6.94,72926.3,-16.17,-17.11,-17.07,0,*6E
1511759152.84,14842,6.94,72924.5,-16.15,-17.11,-17.07,0,*6F
1511759154.12,14843,6.94,72924.0,-16.15,-17.11,-17.07,0,*6E
1511759155.42,14844,6.94,72922.5,-16.17,-17.11,-17.07,0,*6B
1511759156.69,14845,6.94,72926.0,-16.15,-17.11,-17.07,0,*68
1511759157.99,14846,6.94,72926.0,-16.17,-17.11,-17.07,0,*69
1511759159.26,14847,6.94,72924.8,-16.15,-17.11,-17.07,0,*6A
1511759160.56,14848,6.94,72920.0,-16.17,-17.11,-17.07,0,*67
1511759161.86,14849,6.94,72922.0,-16.17,-17.11,-17.07,0,*66
1511759163.14,14850,6.94,72916.5,-16.15,-17.11,-17.07,0,*6C
1511759164.44,14851,6.94,72918.8,-16.17,-17.11,-17.07,0,*6F
1511759165.71,14852,6.94,72928.3,-16.15,-17.11,-17.07,0,*6E
1511759167.01,14853,6.94,72928.0,-16.17,-17.11,-17.07,0,*6D
1511759168.3,14854,6.94,72926.8,-16.17,-17.11,-17.03,0,*6E
1511759169.58,14855,6.94,72928.0,-16.15,-17.11,-17.07,0,*69
1511759170.85,14856,6.94,72924.8,-16.15,-17.11,-17.07,0,*6A
1511759172.13,14857,6.94,72920.8,-16.15,-17.07,-17.07,0,*6C
1511759173.4,14858,6.94,72924.3,-16.15,-17.07,-17.07,0,*63
1511759174.7,14859,6.94,72922.8,-16.17,-17.11,-17.07,0,*67
1511759175.98,14860,6.94,72918.8,-16.15,-17.11,-17.07,0,*6F
1511759177.25,14861,6.94,72916.3,-16.15,-17.11,-17.07,0,*6E
1511759178.55,14862,6.94,72918.0,-16.17,-17.11,-17.07,0,*6F
1511759179.85,14863,6.94,72916.3,-16.17,-17.11,-17.07,0,*6E
1511759181.13,14864,6.94,72916.0,-16.15,-17.11,-17.07,0,*6B
1511759182.42,14865,6.94,72920.0,-16.17,-17.11,-17.07,0,*68
1511759183.73,14866,6.94,72916.0,-16.17,-17.11,-17.07,0,*6B
1511759185.02,14867,6.94,72920.5,-16.17,-17.11,-17.07,0,*6A
1511759186.3,14868,6.94,72916.8,-16.15,-17.11,-17.07,0,*67
1511759187.56,14869,6.94,72918.0,-16.15,-17.11,-17.11,0,*61
1511759188.84,14870,6.94,72918.8,-16.15,-17.07,-17.07,0,*69
1511759190.12,14871,6.94,72922.5,-16.15,-17.07,-17.07,0,*68
1511759191.4,14872,6.94,72918.3,-16.15,-17.07,-17.07,0,*6B
1511759192.67,14873,6.94,72920.8,-16.15,-17.07,-17.07,0,*6A
1511759193.98,14874,6.94,72920.0,-16.17,-17.07,-17.07,0,*6F
1511759195.26,14875,6.94,72922.8,-16.15,-17.07,-17.07,0,*6C
1511759196.53,14876,6.94,72920.0,-16.15,-17.07,-17.07,0,*6F
1511759197.83,14877,6.94,72920.5,-16.17,-17.11,-17.07,0,*6B
1511759199.13,14878,6.94,72922.3,-16.17,-17.11,-17.07,0,*64
1511759200.44,14879,6.94,72918.8,-16.17,-17.07,-17.07,0,*62
1511759201.71,14880,6.94,72922.5,-16.15,-17.07,-17.07,0,*66
1511759202.99,14881,6.94,72922.0,-16.15,-17.07,-17.03,0,*63
1511759204.28,14882,6.94,72922.5,-16.17,-17.07,-17.03,0,*62
1511759205.58,14883,6.94,72926.5,-16.17,-17.07,-17.03,0,*63
1511759206.85,14884,6.94,72926.0,-16.15,-17.07,-17.03,0,*66
1511759208.13,14885,6.94,72924.8,-16.15,-17.07,-17.07,0,*63
1511759209.41,14886,6.94,72924.0,-16.15,-17.21,-17.07,0,*64
1511759210.67,14887,6.94,72924.8,-16.15,-17.11,-17.11,0,*61
1511759211.94,14888,6.94,72924.3,-16.15,-17.07,-17.11,0,*69
1511759213.24,14889,6.94,72920.8,-16.17,-17.07,-17.11,0,*6A
1511759214.51,14890,6.94,72926.8,-16.15,-17.21,-17.11,0,*64
1511759215.78,14891,6.94,72924.8,-16.15,-17.11,-17.11,0,*66
1511759217.08,14892,6.94,72920.5,-16.17,-17.21,-17.11,0,*64
1511759218.37,14893,6.94,72924.0,-16.17,-17.21,-17.11,0,*65
1511759219.67,14894,6.94,72920.8,-16.17,-17.21,-17.11,0,*62
1511759220.94,14895,6.94,72920.5,-16.15,-17.21,-17.11,0,*61
1511759222.21,14896,6.94,72924.5,-16.15,-17.11,-17.11,0,*61
1511759223.47,14897,6.94,72922.8,-16.15,-17.11,-17.11,0,*60
1511759224.74,14898,6.94,72920.3,-16.15,-17.11,-17.11,0,*6F
1511759226.03,14899,6.94,72924.0,-16.17,-17.11,-17.11,0,*6C
1511759227.33,14900,6.88,72920.0,-16.17,-17.11,-17.11,0,*6D
1511759228.62,14901,6.94,72920.8,-16.17,-17.11,-17.11,0,*6C
1511759229.89,14902,6.94,72920.0,-16.15,-17.21,-17.11,0,*6E
1511759231.18,14903,6.94,72922.3,-16.17,-17.11,-17.21,0,*6D
1511759232.48,14904,6.94,72924.3,-16.17,-17.21,-17.21,0,*69
1511759233.78,14905,6.94,72926.3,-16.17,-17.21,-17.11,0,*6B
1511759235.05,14906,6.94,72922.8,-16.15,-17.21,-17.11,0,*6A
1511759236.32,14907,6.94,72924.0,-16.19,-17.25,-17.17,0,*65
1511759237.61,14908,6.94,72922.3,-16.17,-17.21,-17.11,0,*66
1511759238.91,14909,6.94,72926.3,-16.17,-17.11,-17.11,0,*64
1511759240.18,14910,6.94,72922.0,-16.15,-17.21,-17.11,0,*6D
1511759241.48,14911,6.94,72922.3,-16.17,-17.11,-17.07,0,*6A
1511759242.77,14912,6.94,72920.5,-16.17,-17.21,-17.21,0,*6E
1511759244.07,14913,6.94,72920.5,-16.17,-17.21,-17.21,0,*6F
1511759245.37,14914,6.88,72916.0,-16.17,-17.21,-17.21,0,*68
1511759246.66,14915,6.94,72922.0,-16.17,-17.11,-17.21,0,*6A
1511759247.93,14916,6.94,72920.3,-16.15,-17.21,-17.21,0,*68
1511759249.23,14917,6.88,72916.3,-16.17,-17.21,-17.21,0,*6B
1511759250.52,14918,6.94,72922.0,-16.17,-17.21,-17.21,0,*64
1511759251.82,14919,6.94,72918.8,-16.17,-17.21,-17.11,0,*66
1511759253.12,14920,6.94,72922.8,-16.17,-17.21,-17.21,0,*6F
1511759254.39,14921,6.94,72922.0,-16.15,-17.21,-17.11,0,*6F
1511759255.68,14922,6.94,72922.3,-16.17,-17.21,-17.11,0,*6E
1511759256.98,14923,6.94,72922.5,-16.17,-17.21,-17.11,0,*6F
1511759258.28,14924,6.94,72920.5,-16.17,-17.21,-17.11,0,*68
1511759259.57,14925,6.94,72920.8,-16.17,-17.11,-17.21,0,*69
1511759260.87,14926,6.94,72920.5,-16.17,-17.21,-17.11,0,*6A
1511759262.17,14927,6.94,72920.0,-16.17,-17.21,-17.21,0,*68
1511759263.46,14928,6.94,72924.8,-16.17,-17.25,-17.25,0,*67
1511759264.73,14929,6.88,72922.0,-16.19,-17.17,-17.25,0,*69
1511759266.01,14930,6.94,72920.8,-16.19,-17.17,-17.17,0,*60
1511759267.3,14931,6.94,72920.3,-16.17,-17.11,-17.11,0,*6F
1511759268.59,14932,6.94,72920.8,-16.17,-17.11,-17.11,0,*6C
1511759269.89,14933,6.94,72920.5,-16.17,-17.11,-17.21,0,*6E
1511759271.18,14934,6.94,72920.3,-16.17,-17.21,-17.11,0,*69
1511759272.48,14935,6.94,72922.0,-16.17,-17.11,-17.11,0,*6B
1511759273.75,14936,6.94,72922.8,-16.19,-17.17,-17.17,0,*66
1511759275.04,14937,6.94,72922.5,-16.17,-17.11,-17.21,0,*6A
1511759276.34,14938,6.94,72924.3,-16.17,-17.11,-17.11,0,*66
1511759277.61,14939,6.94,72926.0,-16.19,-17.17,-17.17,0,*69
1511759278.88,14940,6.94,72926.0,-16.19,-17.17,-17.17,0,*67
1511759280.16,14941,6.94,72922.3,-16.19,-17.17,-17.17,0,*66
1511759281.43,14942,6.94,72920.8,-16.19,-17.17,-17.17,0,*65
1511759282.73,14943,6.94,72922.0,-16.17,-17.21,-17.11,0,*69
1511759284.03,14944,6.94,72920.5,-16.17,-17.21,-17.11,0,*6E
1511759285.3,14945,6.94,72920.3,-16.19,-17.25,-17.25,0,*62
1511759286.57,14946,6.88,72922.0,-16.19,-17.25,-17.17,0,*60
1511759287.84,14947,6.94,72924.3,-16.19,-17.17,-17.17,0,*60
1511759289.11,14948,6.94,72926.3,-16.19,-17.25,-17.17,0,*6E
1511759290.38,14949,6.94,72926.5,-16.21,-17.17,-17.17,0,*65
1511759291.65,14950,6.94,72926.5,-16.19,-17.17,-17.17,0,*66
1511759292.92,14951,6.94,72920.5,-16.19,-17.17,-17.17,0,*67
1511759294.19,14952,6.94,72922.8,-16.21,-17.17,-17.17,0,*6F
1511759295.45,14953,6.94,72926.0,-16.21,-17.25,-17.11,0,*69
1511759296.72,14954,6.94,72922.0,-16.19,-17.25,-17.17,0,*63
1511759297.99,14955,6.94,72922.5,-16.19,-17.17,-17.17,0,*63
1511759299.27,14956,6.94,72922.8,-16.19,-17.17,-17.25,0,*61
1511759300.53,14957,6.94,72918.5,-16.21,-17.17,-17.17,0,*6A
1511759301.8,14958,6.88,72920.0,-16.19,-17.17,-17.17,0,*6E
1511759303.07,14959,6.94,72920.8,-16.19,-17.25,-17.17,0,*6E
1511759304.35,14960,6.94,72918.5,-16.19,-17.17,-17.17,0,*65
1511759305.6,14961,6.94,72916.3,-16.21,-17.11,-17.17,0,*69
1511759306.88,14962,6.88,72912.5,-16.19,-17.17,-17.17,0,*67
1511759308.14,14963,6.88,72912.8,-16.21,-17.25,-17.17,0,*6C
1511759309.41,14964,6.94,72918.5,-16.19,-17.17,-17.17,0,*61
1511759310.68,14965,6.94,72920.5,-16.19,-17.17,-17.17,0,*60